Location: Lachepaillet
(43.4918°N, 1.4874°W)
Time: 00:22:26
(UTC+00:00)

ISS - Pass Details

Date: 15 May 2026
Orbit: 413 x 422 km, 51.6° (Epoch: 9 June)

Event Time Altitude Azimuth Distance (km) Brightness Sun altitude
Rises 21:20:59 0° 295° (WNW) 2,350 1.2 -17.4°
Reaches altitude 10° 21:23:28 10° 313° (NW) 1,488 0.3 -17.6°
Maximum altitude 21:26:00 20° 3° (N) 1,033 -1.2 -17.9°
Drops below altitude 10° 21:28:33 10° 53° (NE) 1,490 -1.0 -18.2°
Enters shadow 21:29:20 - 60° (ENE) 1,740 -0.7 -18.3°
